Weather History for Keahole Point, HI

Change the Weather History Date:

Tuesday, December 18, 2012

  Actual Average Record
Temperature  
Mean Temperature 76 °F -  
Max Temperature 82 °F 79 °F 86 °F (1982)
Min Temperature 71 °F 68 °F 62 °F (1989)
Cooling Degree Days 12    
Growing Degree Days 26 (Base 50)    
Moisture  
Dew Point 62 °F    
Average Humidity 62    
Maximum Humidity 71    
Minimum Humidity 47    
Precipitation  
Precipitation 0.00 in - - ()
Sea Level Pressure  
Sea Level Pressure 30.01 in    
Wind  
Wind Speed 9 mph (SSW)    
Max Wind Speed 14 mph    
Max Gust Speed -    
Visibility 10 miles    
Events      
Averages and records for this station are not official NWS values.
T = Trace of Precipitation, MM = Missing Value Source: NWS Daily Summary

Daily Weather History Graph

Daily Weather History Graph

Search for Another Location

Airport:

Trip Planner

Search our weather history database for the weather conditions in past years. The results will help you decide how hot, cold, wet, or windy it might be!

Date:

Astronomy

Dec. 18, 2012 Rise Set
Actual Time 6:52 AM HST 5:49 PM HST
Civil Twilight 6:28 AM HST 6:13 PM HST
Nautical Twilight 6:01 AM HST 6:40 PM HST
Astronomical Twilight 5:34 AM HST 7:08 PM HST
Moon 11:21 AM HST (12/18) 11:39 PM HST (12/18)
Length of Visible Light 11h 44m
Length of Day
10h 56m
Waxing Crescent, 36% of the Moon is Illuminated
Dec 18
Waxing Crescent
Dec 19
First Quarter
Dec 28
Full
Jan 4
Last Quarter
Jan 11
New

Hourly Weather History & Observations

Time (HST) Temp. Heat Index Dew Point Humidity Pressure Visibility Wind Dir Wind Speed Gust Speed Precip Events Conditions
12:53 AM 72.0 °F - 61.0 °F 68% 30.02 in 10.0 mi ESE 9.2 mph - N/A   Clear
1:53 AM 73.0 °F - 60.1 °F 64% 30.01 in 10.0 mi SE 10.4 mph - N/A   Clear
2:53 AM 73.0 °F - 60.1 °F 64% 30.00 in 10.0 mi SE 13.8 mph - N/A   Clear
3:53 AM 73.0 °F - 59.0 °F 61% 30.00 in 10.0 mi ESE 10.4 mph - N/A   Clear
4:53 AM 73.0 °F - 61.0 °F 66% 30.01 in 10.0 mi NE 10.4 mph - N/A   Clear
5:53 AM 71.1 °F - 59.0 °F 66% 30.02 in 10.0 mi NNE 9.2 mph - N/A   Clear
6:53 AM 71.1 °F - 57.0 °F 61% 30.02 in 10.0 mi NE 9.2 mph - N/A   Clear
7:53 AM 75.0 °F - 57.0 °F 53% 30.03 in 10.0 mi NE 5.8 mph - N/A   Clear
8:53 AM 77.0 °F - 59.0 °F 54% 30.05 in 10.0 mi South 4.6 mph - N/A   Clear
9:53 AM 79.0 °F - 59.0 °F 50% 30.04 in 10.0 mi WSW 6.9 mph - N/A   Clear
10:53 AM 80.1 °F 80.9 °F 60.1 °F 50% 30.02 in 10.0 mi South 8.1 mph - N/A   Clear
11:53 AM 80.1 °F 81.2 °F 62.1 °F 54% 30.01 in 10.0 mi WSW 9.2 mph - N/A   Clear
12:53 PM 82.0 °F 82.4 °F 60.1 °F 47% 29.98 in 10.0 mi SW 11.5 mph - N/A   Clear
1:53 PM 81.0 °F 81.9 °F 62.1 °F 52% 29.97 in 10.0 mi SW 11.5 mph - N/A   Clear
2:53 PM 81.0 °F 82.2 °F 63.0 °F 54% 29.95 in 10.0 mi SSW 12.7 mph - N/A   Clear
3:53 PM 80.1 °F 81.9 °F 64.9 °F 60% 29.96 in 10.0 mi SW 10.4 mph - N/A   Clear
4:53 PM 79.0 °F - 66.0 °F 64% 29.98 in 10.0 mi SW 10.4 mph - N/A   Partly Cloudy
5:53 PM 78.1 °F - 66.0 °F 66% 29.99 in 10.0 mi SW 6.9 mph - N/A   Clear
6:53 PM 77.0 °F - 66.0 °F 69% 29.99 in 10.0 mi West 10.4 mph - N/A   Overcast
7:53 PM 75.9 °F - 66.0 °F 71% 30.01 in 10.0 mi West 6.9 mph - N/A   Scattered Clouds
8:53 PM 75.9 °F - 66.0 °F 71% 30.01 in 10.0 mi West 5.8 mph - N/A   Clear
9:53 PM 75.9 °F - 66.0 °F 71% 30.02 in 10.0 mi SW 5.8 mph - N/A   Partly Cloudy
10:53 PM 75.0 °F - 64.9 °F 71% 30.01 in 10.0 mi SSW 4.6 mph - N/A   Scattered Clouds
11:53 PM 75.0 °F - 64.9 °F 71% 30.02 in 10.0 mi SSW 4.6 mph - N/A   Clear